Location: Altleiningen
(49.5078°N, 8.0741°E)
Time: 23:19:18
(UTC+00:00)

USA 234 - Pass Details

Date: 03 March 2021
Orbit: 1102 x 1105 km, 123.0° (Epoch: 13 April)

Event Time Altitude Azimuth Distance (km) Brightness Sun altitude
Exits shadow 19:39:57 37° 66° (ENE) 1,660 3.8 -24.2°
Maximum altitude 19:42:49 75° 144° (SE) 1,140 3.1 -24.6°
Drops below altitude 10° 19:49:22 10° 230° (SW) 2,957 5.8 -25.6°
Sets 19:51:51 0° 232° (SW) 3,913 6.5 -26.0°
